Wenatchee, WA

3:58 PM PDT on May 23, 2017 (GMT -0700)
Pangborn Memorial

Weather History for KEAT - November, 2010

Change the Weather History Date:

Monday, November 22, 2010

  Actual Average Record
Temperature  
Mean Temperature 17 °F 35 °F  
Max Temperature 23 °F 40 °F 60 °F (1967)
Min Temperature 11 °F 30 °F 1 °F (1985)
Degree Days  
Heating Degree Days 48 30  
Month to date heating degree days 607 567  
Since 1 July heating degree days 1547 1117  
Cooling Degree Days 0 0  
Month to date cooling degree days 0 0  
Year to date cooling degree days 183 790  
Moisture  
Dew Point 13 °F    
Average Humidity 83    
Maximum Humidity 100    
Minimum Humidity 62    
Precipitation  
Precipitation 0.20 in 0.03 in 0.38 in (1961)
Month to date precipitation 1.88 0.77  
Year to date precipitation 16.16 6.27  
Snow  
Snow 4.20 in - - ()
Month to date snowfall 6.4  
Snow Depth 4.00 in    
Sea Level Pressure  
Sea Level Pressure 29.71 in    
Wind  
Wind Speed 5 mph (SW)    
Max Wind Speed 12 mph    
Max Gust Speed -    
Visibility 4 miles    
Events Fog , Snow    
T = Trace of Precipitation, MM = Missing Value Source: NWS Daily Summary

Daily Weather History Graph

Daily Weather History Graph

Search for Another Location

Airport or City:

Trip Planner

Search our weather history database for the weather conditions in past years. The results will help you decide how hot, cold, wet, or windy it might be!

Date:

Astronomy

Nov. 22, 2010 Rise Set
Actual Time 7:15 AM PST 4:18 PM PST
Civil Twilight 6:41 AM PST 4:52 PM PST
Nautical Twilight 6:03 AM PST 5:30 PM PST
Astronomical Twilight 5:27 AM PST 6:06 PM PST
Moon 4:56 PM PST (11/22) 8:29 AM PST (11/22)
Length of Visible Light 10h 10m
Length of Day
9h 02m
Full, 99% of the Moon is Illuminated
Nov 22
Full
Nov 28
Last Quarter
Dec 5
New
Dec 13
First Quarter
Dec 21
Full

Hourly Weather History & Observations

Time (PST) Temp. Windchill Dew Point Humidity Pressure Visibility Wind Dir Wind Speed Gust Speed Precip Events Conditions
12:55 AM 21.9 °F 17.2 °F 19.9 °F 92% 29.75 in 4.0 mi WNW 3.5 mph - 0.00 in Snow Light Snow
1:55 AM 21.9 °F - 19.0 °F 89% 29.75 in 4.0 mi Calm Calm - 0.00 in Snow Light Snow
2:55 AM 21.9 °F - 17.1 °F 82% 29.75 in 10.0 mi Calm Calm - 0.00 in   Overcast
3:55 AM 21.9 °F 14.5 °F 16.0 °F 78% 29.75 in 10.0 mi East 5.8 mph - N/A   Overcast
4:55 AM 21.0 °F 13.4 °F 14.0 °F 74% 29.75 in 10.0 mi ESE 5.8 mph - N/A   Overcast
5:55 AM 21.0 °F 13.4 °F 12.9 °F 71% 29.76 in 10.0 mi ESE 5.8 mph - N/A   Overcast
6:55 AM 19.9 °F 9.3 °F 10.9 °F 68% 29.78 in 7.0 mi SE 9.2 mph - 0.00 in Snow Light Snow
7:36 AM 19.4 °F 11.5 °F 10.4 °F 68% 29.73 in 2.5 mi SE 5.8 mph - 0.00 in Snow Light Snow
7:43 AM 19.4 °F 11.5 °F 10.4 °F 68% 29.73 in 5.0 mi ESE 5.8 mph - 0.00 in Snow Light Snow
7:55 AM 19.0 °F 11.1 °F 10.0 °F 68% 29.79 in 8.0 mi SE 5.8 mph - 0.00 in   Overcast
8:55 AM 19.0 °F 6.8 °F 8.1 °F 62% 29.79 in 10.0 mi SE 11.5 mph - N/A   Overcast
9:55 AM 19.0 °F 8.2 °F 8.1 °F 62% 29.79 in 10.0 mi SE 9.2 mph - N/A   Overcast
10:29 AM 19.4 °F 7.9 °F 8.6 °F 63% 29.74 in 10.0 mi SE 10.4 mph - N/A   Overcast
10:55 AM 19.0 °F 8.2 °F 8.1 °F 62% 29.79 in 10.0 mi SE 9.2 mph - N/A   Overcast
11:53 AM 19.4 °F 14.3 °F 10.4 °F 68% 29.73 in 3.0 mi ENE 3.5 mph - 0.00 in Snow Light Snow
11:55 AM 19.0 °F 13.9 °F 10.9 °F 71% 29.78 in 3.0 mi ENE 3.5 mph - 0.00 in Snow Light Snow
12:00 PM 19.4 °F 11.5 °F 10.4 °F 68% 29.73 in 1.8 mi NE 5.8 mph - 0.00 in Snow Light Snow
12:06 PM 17.6 °F 12.3 °F 12.2 °F 79% 29.73 in 0.8 mi Variable 3.5 mph - 0.00 in Snow Light Snow
12:27 PM 17.6 °F - 12.2 °F 79% 29.72 in 1.5 mi Calm Calm - 0.00 in Snow Light Snow
12:45 PM 17.6 °F - 12.2 °F 79% 29.72 in 0.5 mi Calm Calm - 0.00 in Fog , Snow Snow
12:55 PM 17.1 °F 11.7 °F 12.9 °F 84% 29.77 in 0.8 mi South 3.5 mph - 0.00 in Snow Light Snow
1:55 PM 17.1 °F 11.7 °F 14.0 °F 88% 29.77 in 0.8 mi WSW 3.5 mph - 0.00 in Snow Light Snow
2:55 PM 17.1 °F 11.7 °F 10.9 °F 77% 29.76 in 1.0 mi Variable 3.5 mph - 0.00 in Snow Light Snow
3:10 PM 17.6 °F 10.7 °F 12.2 °F 79% 29.70 in 1.0 mi SSW 4.6 mph - 0.00 in Snow Light Snow
3:27 PM 17.6 °F 12.3 °F 12.2 °F 79% 29.69 in 2.0 mi Variable 3.5 mph - 0.00 in Snow Light Snow
3:41 PM 17.6 °F 7.3 °F 8.6 °F 68% 29.70 in 1.5 mi NNE 8.1 mph - 0.00 in Snow Light Snow
3:52 PM 17.6 °F 10.7 °F 12.2 °F 79% 29.70 in 2.5 mi Variable 4.6 mph - 0.00 in Snow Light Snow
3:55 PM 17.1 °F 11.7 °F 12.9 °F 84% 29.75 in 2.5 mi Variable 3.5 mph - 0.00 in Snow Light Snow
4:03 PM 17.6 °F 10.7 °F 12.2 °F 79% 29.69 in 1.8 mi West 4.6 mph - 0.00 in Snow Light Snow
4:23 PM 15.8 °F 4.2 °F 14.0 °F 93% 29.69 in 0.8 mi West 9.2 mph - 0.00 in Snow Light Snow
4:31 PM 15.8 °F 3.4 °F 14.0 °F 93% 29.68 in 1.5 mi WSW 10.4 mph - 0.00 in Snow Light Snow
4:55 PM 16.0 °F 7.4 °F 15.1 °F 96% 29.73 in 1.5 mi SW 5.8 mph - 0.00 in Snow Light Snow
5:04 PM 15.8 °F - 14.0 °F 93% 29.68 in 1.8 mi Calm Calm - 0.00 in Snow Light Snow
5:21 PM 15.8 °F 7.2 °F 15.8 °F 100% 29.67 in 0.8 mi WSW 5.8 mph - 0.00 in Snow Light Snow
5:55 PM 16.0 °F 6.3 °F 14.0 °F 92% 29.73 in 1.0 mi West 6.9 mph - 0.00 in Snow Light Snow
6:13 PM 15.8 °F 4.2 °F 14.0 °F 93% 29.67 in 0.8 mi WSW 9.2 mph - 0.00 in Snow Light Snow
6:55 PM 16.0 °F 2.9 °F 14.0 °F 92% 29.71 in 0.8 mi SW 11.5 mph - 0.00 in Snow Light Snow
7:26 PM 15.8 °F 2.7 °F 15.8 °F 100% 29.65 in 1.0 mi WSW 11.5 mph - 0.00 in Snow Light Snow
7:46 PM 15.8 °F 5.1 °F 15.8 °F 100% 29.64 in 1.5 mi SW 8.1 mph - 0.00 in Snow Light Snow
7:55 PM 16.0 °F 4.4 °F 15.1 °F 96% 29.69 in 1.5 mi WSW 9.2 mph - 0.00 in Snow Light Snow
8:13 PM 17.6 °F 5.0 °F 14.0 °F 86% 29.64 in 1.2 mi WSW 11.5 mph - 0.00 in Snow Light Snow
8:20 PM 17.6 °F 6.4 °F 15.8 °F 93% 29.63 in 1.2 mi WSW 9.2 mph - 0.00 in Snow Light Snow
8:29 PM 17.6 °F 10.7 °F 15.8 °F 93% 29.63 in 2.0 mi WSW 4.6 mph - 0.00 in Snow Light Snow
8:55 PM 17.1 °F 8.7 °F 14.0 °F 88% 29.69 in 2.0 mi WSW 5.8 mph - 0.00 in Snow Light Snow
9:10 PM 17.6 °F 8.2 °F 14.0 °F 86% 29.63 in 4.0 mi West 6.9 mph - 0.00 in Snow Light Snow
9:21 PM 17.6 °F 8.2 °F 14.0 °F 86% 29.63 in 2.5 mi West 6.9 mph - 0.00 in Snow Light Snow
9:46 PM 17.6 °F 10.7 °F 15.8 °F 93% 29.64 in 4.0 mi West 4.6 mph - 0.00 in Snow Light Snow
9:55 PM 17.1 °F 10.0 °F 15.1 °F 92% 29.70 in 3.0 mi West 4.6 mph - 0.00 in Snow Light Snow
10:14 PM 17.6 °F 10.7 °F 15.8 °F 93% 29.65 in 4.0 mi WNW 4.6 mph - 0.00 in Snow Light Snow
10:36 PM 17.6 °F 10.7 °F 15.8 °F 93% 29.65 in 2.5 mi West 4.6 mph - 0.00 in Snow Light Snow
11:51 PM 17.6 °F 9.3 °F 15.8 °F 93% 29.67 in 1.8 mi WNW 5.8 mph - 0.00 in Snow Light Snow